Hourly Weather Rudaevo

Today, 1 August, Sunday

Time Temperature Precipitation Wind Pressure Humidity
00:00 +15°C° 0 mm 2 mps 742 mmHg 88%
01:00 +15°C° 0 mm 2 mps 742 mmHg 90%
02:00 +15°C° 0 mm 2 mps 742 mmHg 92%
03:00 +15°C° 0 mm 2 mps 742 mmHg 90%
04:00 +16°C° 0 mm 2 mps 742 mmHg 88%
05:00 +16°C° 0 mm 1 mps 742 mmHg 86%
06:00 +18°C° 0 mm 2 mps 742 mmHg 78%
07:00 +19°C° 0 mm 3 mps 742 mmHg 70%
08:00 +21°C° 0 mm 3 mps 742 mmHg 62%
09:00 +20°C° 0.3 mm 3 mps 742 mmHg 71%
10:00 +20°C° 0.3 mm 3 mps 743 mmHg 80%
11:00 +19°C° 0.3 mm 3 mps 743 mmHg 89%
12:00 +19°C° 0.1 mm 3 mps 743 mmHg 89%
13:00 +19°C° 0.1 mm 4 mps 743 mmHg 88%
14:00 +19°C° 0.1 mm 4 mps 742 mmHg 88%
15:00 +20°C° 0.1 mm 4 mps 742 mmHg 84%
16:00 +22°C° 0.1 mm 4 mps 742 mmHg 79%
17:00 +24°C° 0.1 mm 3 mps 742 mmHg 75%
18:00 +21°C° 0.1 mm 3 mps 742 mmHg 81%
19:00 +20°C° 0.1 mm 2 mps 742 mmHg 87%
20:00 +19°C° 0.1 mm 2 mps 742 mmHg 93%
21:00 +18°C° 0 mm 2 mps 742 mmHg 94%
22:00 +18°C° 0 mm 2 mps 742 mmHg 95%
23:00 +17°C° 0 mm 2 mps 742 mmHg 96%

Tomorrow, 2 August, Monday

Time Temperature Precipitation Wind Pressure Humidity
00:00 +17°C° 0 mm 2 mps 742 mmHg 95%
01:00 +17°C° 0 mm 2 mps 742 mmHg 94%
02:00 +16°C° 0 mm 1 mps 742 mmHg 93%
03:00 +16°C° 0 mm 1 mps 742 mmHg 91%
04:00 +18°C° 0 mm 1 mps 742 mmHg 90%
05:00 +18°C° 0 mm 1 mps 742 mmHg 88%
06:00 +20°C° 0 mm 1 mps 742 mmHg 80%
07:00 +22°C° 0 mm 1 mps 742 mmHg 71%
08:00 +23°C° 0 mm 2 mps 741 mmHg 62%
09:00 +25°C° 0 mm 2 mps 741 mmHg 56%
10:00 +27°C° 0 mm 3 mps 740 mmHg 51%
11:00 +29°C° 0 mm 3 mps 740 mmHg 45%
12:00 +29°C° 0 mm 4 mps 739 mmHg 48%
13:00 +29°C° 0 mm 4 mps 739 mmHg 52%
14:00 +29°C° 0 mm 4 mps 738 mmHg 55%
15:00 +29°C° 0.1 mm 4 mps 737 mmHg 55%
16:00 +29°C° 0.1 mm 4 mps 736 mmHg 55%
17:00 +30°C° 0.1 mm 5 mps 735 mmHg 55%
18:00 +27°C° 2.1 mm 5 mps 736 mmHg 68%
19:00 +23°C° 2.1 mm 5 mps 736 mmHg 80%
20:00 +20°C° 2.1 mm 5 mps 736 mmHg 92%
21:00 +19°C° 1.2 mm 5 mps 736 mmHg 93%
22:00 +19°C° 1.2 mm 5 mps 736 mmHg 94%
23:00 +17°C° 1.2 mm 5 mps 736 mmHg 95%

Day after tomorrow, 3 August, Tuesday

Time Temperature Precipitation Wind Pressure Humidity
00:00 +17°C° 0 mm 4 mps 736 mmHg 94%
01:00 +15°C° 0 mm 4 mps 737 mmHg 93%
02:00 +14°C° 0 mm 4 mps 737 mmHg 93%
03:00 +14°C° 0 mm 3 mps 738 mmHg 93%
04:00 +16°C° 0 mm 3 mps 738 mmHg 92%
05:00 +16°C° 0 mm 3 mps 739 mmHg 92%
06:00 +16°C° 0 mm 3 mps 739 mmHg 90%
07:00 +17°C° 0 mm 3 mps 740 mmHg 87%
08:00 +17°C° 0 mm 3 mps 740 mmHg 85%
09:00 +18°C° 0.1 mm 3 mps 740 mmHg 78%
10:00 +20°C° 0.1 mm 3 mps 741 mmHg 71%
11:00 +21°C° 0.1 mm 3 mps 741 mmHg 64%
12:00 +21°C° 0.5 mm 4 mps 741 mmHg 66%
13:00 +20°C° 0.5 mm 4 mps 741 mmHg 68%
14:00 +20°C° 0.5 mm 4 mps 741 mmHg 71%
15:00 +21°C° 0.1 mm 4 mps 741 mmHg 65%
16:00 +21°C° 0.1 mm 3 mps 741 mmHg 59%
17:00 +22°C° 0.1 mm 3 mps 741 mmHg 53%
18:00 +20°C° 0 mm 3 mps 742 mmHg 61%
19:00 +18°C° 0 mm 2 mps 742 mmHg 69%
20:00 +16°C° 0 mm 2 mps 743 mmHg 77%
21:00 +16°C° 0 mm 2 mps 743 mmHg 81%
22:00 +15°C° 0 mm 2 mps 743 mmHg 84%
23:00 +14°C° 0 mm 2 mps 744 mmHg 87%

4 August, Wednesday

Time Temperature Precipitation Wind Pressure Humidity
00:00 +14°C° 0 mm 2 mps 744 mmHg 89%
01:00 +13°C° 0 mm 2 mps 744 mmHg 91%
02:00 +13°C° 0 mm 1 mps 745 mmHg 93%
03:00 +13°C° 0 mm 1 mps 745 mmHg 91%
04:00 +13°C° 0 mm 1 mps 745 mmHg 89%
05:00 +14°C° 0 mm 1 mps 745 mmHg 88%
06:00 +15°C° 0 mm 1 mps 746 mmHg 79%
07:00 +18°C° 0 mm 1 mps 746 mmHg 71%
08:00 +20°C° 0 mm 1 mps 746 mmHg 62%
09:00 +19°C° 0 mm 2 mps 747 mmHg 61%
10:00 +19°C° 0 mm 2 mps 747 mmHg 59%
11:00 +19°C° 0 mm 2 mps 747 mmHg 58%
12:00 +20°C° 0.1 mm 2 mps 747 mmHg 53%
13:00 +21°C° 0.1 mm 2 mps 747 mmHg 48%
14:00 +23°C° 0.1 mm 1 mps 747 mmHg 43%
15:00 +23°C° 0 mm 1 mps 747 mmHg 46%
16:00 +22°C° 0 mm 1 mps 747 mmHg 49%
17:00 +21°C° 0 mm 1 mps 747 mmHg 52%
18:00 +20°C° 0 mm 1 mps 748 mmHg 55%
19:00 +19°C° 0 mm 1 mps 748 mmHg 58%
20:00 +16°C° 0 mm 1 mps 748 mmHg 62%
21:00 +16°C° 0 mm 1 mps 748 mmHg 62%
22:00 +15°C° 0 mm 1 mps 749 mmHg 62%
23:00 +15°C° 0 mm 1 mps 749 mmHg 62%

5 August, Thursday

Time Temperature Precipitation Wind Pressure Humidity
00:00 +14°C° 0 mm 1 mps 749 mmHg 66%
01:00 +13°C° 0 mm 1 mps 749 mmHg 69%
02:00 +12°C° 0 mm 1 mps 749 mmHg 73%
03:00 +12°C° 0 mm 1 mps 750 mmHg 73%
04:00 +12°C° 0 mm 1 mps 750 mmHg 74%
05:00 +12°C° 0 mm 1 mps 750 mmHg 75%
06:00 +14°C° 0 mm 2 mps 750 mmHg 68%
07:00 +16°C° 0 mm 2 mps 750 mmHg 62%
08:00 +18°C° 0 mm 2 mps 750 mmHg 56%
09:00 +19°C° 0 mm 2 mps 750 mmHg 51%
10:00 +20°C° 0 mm 2 mps 750 mmHg 47%
11:00 +23°C° 0 mm 2 mps 750 mmHg 43%
12:00 +23°C° 0 mm 2 mps 749 mmHg 42%
13:00 +24°C° 0 mm 2 mps 749 mmHg 40%
14:00 +24°C° 0 mm 2 mps 749 mmHg 38%
15:00 +23°C° 0 mm 2 mps 749 mmHg 45%
16:00 +21°C° 0 mm 2 mps 749 mmHg 51%
17:00 +21°C° 0 mm 1 mps 748 mmHg 58%
18:00 +20°C° 0 mm 1 mps 748 mmHg 62%
19:00 +19°C° 0 mm 1 mps 748 mmHg 66%
20:00 +18°C° 0 mm 1 mps 748 mmHg 69%
21:00 +18°C° 0 mm 1 mps 748 mmHg 70%
22:00 +16°C° 0 mm 1 mps 748 mmHg 70%
23:00 +16°C° 0 mm 1 mps 748 mmHg 71%

6 August, Friday

Time Temperature Precipitation Wind Pressure Humidity
00:00 +15°C° 0 mm 1 mps 748 mmHg 72%
01:00 +15°C° 0 mm 2 mps 748 mmHg 73%
02:00 +15°C° 0 mm 2 mps 748 mmHg 74%
03:00 +15°C° 0 mm 2 mps 748 mmHg 73%
04:00 +15°C° 0 mm 2 mps 748 mmHg 71%
05:00 +15°C° 0 mm 2 mps 748 mmHg 70%
06:00 +16°C° 0 mm 2 mps 748 mmHg 70%
07:00 +17°C° 0 mm 2 mps 748 mmHg 69%
08:00 +17°C° 0 mm 3 mps 748 mmHg 69%
09:00 +18°C° 0 mm 3 mps 748 mmHg 65%
10:00 +19°C° 0 mm 3 mps 748 mmHg 62%
11:00 +20°C° 0 mm 4 mps 747 mmHg 58%
12:00 +19°C° 0.4 mm 3 mps 747 mmHg 67%
13:00 +18°C° 0.4 mm 3 mps 747 mmHg 77%
14:00 +17°C° 0.4 mm 3 mps 747 mmHg 86%
15:00 +17°C° 1.7 mm 3 mps 747 mmHg 90%
16:00 +16°C° 1.7 mm 3 mps 747 mmHg 94%
17:00 +16°C° 1.7 mm 3 mps 747 mmHg 98%
18:00 +16°C° 1.7 mm 3 mps 747 mmHg 98%
19:00 +15°C° 1.7 mm 4 mps 747 mmHg 98%
20:00 +15°C° 1.7 mm 4 mps 746 mmHg 98%
21:00 +15°C° 1.4 mm 4 mps 746 mmHg 98%
22:00 +15°C° 1.4 mm 4 mps 746 mmHg 98%
23:00 +15°C° 1.4 mm 4 mps 746 mmHg 98%
Show more

We Need Your Consent

Meteoprog and our Service Providers may store and access personal data such as cookies, device identifiers or other similar technologies on your device and process such data to personalise content and ads, as well as provide social media features and to analyse the traffic.

  • Store and/or access information on your device

    Cookies, device identifiers or other information can be stored or accessed on your device for the purposes indicated above.

  • Personalised ads and content, ad and content measurement, audience insights, and products development

    Ads and content can be personalised based on a profile. More data can be added to better personalise ads and content. Ad and content performance can be measured. Insights about the audience who saw the ads and content can be derived. Such data can be used to develop or improve user’s experience, systems and software.

By clicking ‘I Agree’ you will allow the use of indicated cookies, device identifiers, web beacons or other similar technologies. Your settings can be changed in the browser on your device.

For certain purposes, legitimate interests may be relied on, rather than consent. You can read more about this in our Privacy and Cookie Policy.